Weather History for KAFN - May, 2014

Change the Weather History Date:

Saturday, May 10, 2014

  Actual Average Record
Temperature  
Mean Temperature 66 °F -  
Max Temperature 77 °F 62 °F 87 °F (2015)
Min Temperature 55 °F 39 °F 39 °F (1997)
Cooling Degree Days 1    
Growing Degree Days 16 (Base 50)    
Moisture  
Dew Point 57 °F    
Average Humidity 80    
Maximum Humidity 97    
Minimum Humidity 42    
Precipitation  
Precipitation 0.03 in - - ()
Sea Level Pressure  
Sea Level Pressure 29.87 in    
Wind  
Wind Speed 8 mph (SSW)    
Max Wind Speed 12 mph    
Max Gust Speed 22 mph    
Visibility 8 miles    
Events Rain    
Averages and records for this station are not official NWS values.
T = Trace of Precipitation, MM = Missing Value Source: NWS Daily Summary

Daily Weather History Graph

Daily Weather History Graph

Search for Another Location

Airport or City:

Trip Planner

Search our weather history database for the weather conditions in past years. The results will help you decide how hot, cold, wet, or windy it might be!

Date:

Astronomy

May. 10, 2014 Rise Set
Actual Time 5:30 AM EDT 7:58 PM EDT
Civil Twilight 4:58 AM EDT 8:30 PM EDT
Nautical Twilight 4:19 AM EDT 9:10 PM EDT
Astronomical Twilight 3:34 AM EDT 9:55 PM EDT
Moon 3:45 PM EDT (5/10) 3:09 AM EDT (5/10)
Length of Visible Light 15h 31m
Length of Day
14h 27m
Waxing Gibbous, 82% of the Moon is Illuminated
May 10
Waxing Gibbous
May 14
Full
May 21
Last Quarter
May 28
New
Jun 5
First Quarter

Hourly Weather History & Observations

Time (EDT) Temp. Dew Point Humidity Pressure Visibility Wind Dir Wind Speed Gust Speed Precip Events Conditions
12:52 AM 55.0 °F 53.1 °F 93% 30.06 in 7.0 mi South 9.2 mph - N/A   Overcast
1:52 AM 55.9 °F 54.0 °F 93% 30.01 in 6.0 mi South 5.8 mph - N/A   Overcast
2:52 AM 57.9 °F 57.0 °F 97% 29.99 in 5.0 mi South 6.9 mph - N/A   Overcast
3:52 AM 60.1 °F 57.9 °F 93% 29.96 in 5.0 mi South 9.2 mph - N/A   Overcast
4:52 AM 60.1 °F 59.0 °F 96% 29.92 in 4.0 mi South 11.5 mph - N/A   Overcast
5:33 AM 61.0 °F 59.0 °F 93% 29.90 in 2.5 mi South 8.1 mph - N/A   Overcast
5:41 AM 61.0 °F 59.0 °F 93% 29.90 in 3.0 mi SSW 5.8 mph - N/A   Overcast
5:52 AM 61.0 °F 59.0 °F 93% 29.92 in 4.0 mi South 9.2 mph - N/A   Overcast
6:22 AM 61.0 °F 59.0 °F 93% 29.89 in 6.0 mi South 6.9 mph - N/A   Overcast
7:52 AM 61.0 °F 59.0 °F 93% 29.90 in 5.0 mi South 9.2 mph - N/A   Overcast
8:52 AM 61.0 °F 59.0 °F 93% 29.88 in 4.0 mi SSW 5.8 mph - 0.02 in Rain Light Rain
9:28 AM 62.1 °F 59.0 °F 90% 29.87 in 7.0 mi SSW 5.8 mph - 0.01 in   Overcast
9:52 AM 61.0 °F 57.9 °F 90% 29.89 in 7.0 mi Variable 5.8 mph - 0.01 in   Overcast
10:52 AM 62.1 °F 59.0 °F 90% 29.88 in 7.0 mi SSW 6.9 mph - N/A   Overcast
11:02 AM 62.1 °F 59.0 °F 90% 29.87 in 7.0 mi Variable 5.8 mph - N/A   Overcast
11:52 AM 66.0 °F 60.1 °F 81% 29.88 in 10.0 mi SW 9.2 mph - N/A   Mostly Cloudy
11:58 AM 64.9 °F 60.1 °F 84% 29.87 in 10.0 mi SSW 10.4 mph - N/A   Mostly Cloudy
12:49 PM 69.8 °F 59.0 °F 68% 29.84 in 10.0 mi WSW 10.4 mph 17.3 mph N/A   Scattered Clouds
12:52 PM 70.0 °F 59.0 °F 68% 29.85 in 10.0 mi SW 10.4 mph 17.3 mph N/A   Scattered Clouds
1:52 PM 72.0 °F 57.0 °F 59% 29.84 in 10.0 mi West 10.4 mph 18.4 mph N/A   Scattered Clouds
2:52 PM 73.0 °F 55.9 °F 55% 29.82 in 10.0 mi WSW 11.5 mph - N/A   Partly Cloudy
3:52 PM 73.9 °F 55.0 °F 52% 29.79 in 10.0 mi Variable 6.9 mph - N/A   Clear
4:52 PM 75.9 °F 52.0 °F 43% 29.78 in 10.0 mi SSW 11.5 mph 21.9 mph N/A   Scattered Clouds
5:52 PM 77.0 °F 52.0 °F 42% 29.77 in 10.0 mi SSW 6.9 mph - N/A   Partly Cloudy
6:52 PM 72.0 °F 55.0 °F 55% 29.78 in 10.0 mi SSW 9.2 mph 19.6 mph N/A   Clear
7:52 PM 66.9 °F 55.0 °F 66% 29.80 in 10.0 mi SSW 9.2 mph - N/A   Clear
8:52 PM 64.0 °F 55.9 °F 75% 29.82 in 10.0 mi South 6.9 mph - N/A   Clear
9:52 PM 63.0 °F 57.0 °F 81% 29.84 in 10.0 mi SSW 3.5 mph - N/A   Overcast
10:52 PM 62.1 °F 57.0 °F 84% 29.84 in 10.0 mi SSW 8.1 mph - N/A   Partly Cloudy
11:52 PM 60.1 °F 55.9 °F 86% 29.83 in 10.0 mi SSW 4.6 mph - N/A   Clear